Flag for Germany Weather past 2 weeks in Mörfelden-Walldorf, Hesse, Germany

Now
57 °F

Clear.


Feels Like: 54 °F
Forecast: 59 / 75 °F
Wind: 14 mph from Northeast

Location: Frankfurt-M-Flughafen Airport

Current Time: Sep 3, 2014 at 4:38:22 AM

Latest Report: Sep 3, 2014 at 3:50 AM


Visibility: 10 mi

Pressure: 30.18 "Hg

Humidity: 88%

Dew point: 54 °F

Location of Mörfelden-WalldorfLocation

Historic Weather in Mörfelden-Walldorf — Graph

°F

Mörfelden-Walldorf temperature yesterday

Maximum temperature yesterday: 68 °F (at 1:20 PM)
Minimum temperature yesterday: 54 °F (at 2:50 AM)
Average temperature yesterday: 62 °F

Past Weeks' High & Low Weather Summary

 TemperatureHumidityPressure
High75 °F (Aug 28, 3:20 PM)100% (Aug 19, 3:50 AM)30.18 "Hg (Aug 19, 3:50 AM)
Low46 °F (Aug 20, 5:20 AM)33% (Aug 22, 4:50 PM)29.65 "Hg (Aug 26, 5:20 AM)
Average60 °F78%30.00 "Hg
* Reported Aug 19 3:20 AM — Sep 3 3:20 AM, Mörfelden-Walldorf, Weather by CustomWeather, © 2014

Note: Actual official high and low records may vary slightly from our data, if they occured in-between our weather recording intervals... More about our weather records

Advertising

Mörfelden-Walldorf weather history for previous 24 hours

 ConditionsComfort  
Time TempWeatherWind HumidityBarometerVisibility
3:20 AM
Sep 3
57 °FClear.13 mph94%30.18 "Hg10 mi
2:50 AM59 °FClear.12 mph88%30.18 "Hg10 mi
2:20 AM59 °FClear.12 mph88%30.18 "Hg10 mi
1:50 AM59 °FClear.9 mph94%30.18 "Hg10 mi
1:20 AM61 °FPassing clouds.10 mph88%30.18 "HgN/A
12:50 AM63 °FPartly cloudy.8 mph83%30.18 "HgN/A
12:20 AM63 °FPartly cloudy.9 mph88%30.18 "HgN/A
11:50 PM
Sep 2
63 °FPartly cloudy.10 mph88%30.18 "HgN/A
11:20 PM63 °FPassing clouds.12 mph88%30.18 "HgN/A
10:50 PM63 °FPassing clouds.8 mph83%30.18 "HgN/A
10:20 PM63 °FPassing clouds.10 mph83%30.18 "HgN/A
9:50 PM63 °FPartly cloudy.8 mph83%30.18 "HgN/A
9:20 PM64 °FPartly cloudy.13 mph78%30.18 "HgN/A
8:50 PM64 °FBroken clouds.7 mph78%30.18 "HgN/A
8:20 PM64 °FBroken clouds.7 mph78%30.15 "HgN/A
7:50 PM66 °FBroken clouds.8 mph73%30.15 "HgN/A
7:20 PM66 °FBroken clouds.8 mph68%30.15 "HgN/A
6:50 PM66 °FBroken clouds.9 mph68%30.15 "HgN/A
6:20 PM66 °FBroken clouds.8 mph73%30.15 "HgN/A
5:50 PM66 °FBroken clouds.8 mph68%30.15 "HgN/A
5:20 PM66 °FBroken clouds.8 mph68%30.15 "HgN/A
4:50 PM66 °FBroken clouds.9 mph68%30.15 "HgN/A
4:20 PM66 °FBroken clouds.8 mph68%30.15 "HgN/A
3:50 PM64 °FPartly sunny.12 mph73%30.15 "HgN/A
3:20 PM66 °FPartly sunny.12 mph68%30.15 "HgN/A
2:50 PM66 °FBroken clouds.6 mph60%30.15 "HgN/A
2:20 PM68 °FPartly sunny.6 mph53%30.15 "HgN/A
1:50 PM68 °FPartly sunny.3 mph53%30.15 "HgN/A
1:20 PM68 °FPartly sunny.5 mph56%30.15 "HgN/A
12:50 PM66 °FPartly sunny.6 mph64%30.15 "HgN/A
12:20 PM66 °FPartly sunny.5 mph64%30.15 "HgN/A
11:50 AM66 °FPartly sunny.7 mph60%30.15 "HgN/A
11:20 AM64 °FPartly sunny.7 mph64%30.15 "HgN/A
10:50 AM64 °FScattered clouds.5 mph73%30.15 "HgN/A
10:20 AM64 °FScattered clouds.3 mph73%30.15 "HgN/A
9:50 AM61 °FScattered clouds.2 mph83%30.15 "HgN/A
9:20 AM59 °FSunny.1 mph88%30.15 "Hg10 mi
8:50 AM59 °FSunny.3 mph88%30.15 "Hg10 mi
8:20 AM57 °FSunny.5 mph88%30.15 "Hg10 mi
7:50 AM55 °FSunny.1 mph94%30.15 "Hg10 mi
7:20 AM55 °FClear.1 mph94%30.15 "Hg10 mi
6:50 AM55 °FClear.1 mph94%30.15 "Hg10 mi
6:20 AM57 °FClear.3 mph88%30.12 "Hg10 mi
5:50 AM55 °FClear.3 mph94%30.12 "Hg10 mi
5:20 AM55 °FClear.1 mph94%30.12 "Hg10 mi
4:50 AM54 °FClear.1 mph100%30.12 "Hg10 mi
4:20 AM54 °FClear.1 mph94%30.12 "Hg10 mi
Weather by CustomWeather, © 2014

See weather overviewHow to use our weather pages